Time,TemperatureF,DewpointF,PressureIn,WindDirection,WindDirectionDegrees,WindSpeedMPH,WindSpeedGustMPH,Humidity,HourlyPrecipIn,Conditions,Clouds,dailyrainin,SolarRadiationWatts/m^2,SoftwareType,DateUTC
2013-02-05 00:00:00,25.0,18.2,29.69,South,188,0.0,0.0,75,0.00,,,0.00,0,WeatherCatV1.13B119,2013-02-05 05:00:00,
2013-02-05 00:05:00,25.2,18.7,29.69,South,188,0.0,0.0,76,0.00,,,0.00,0,WeatherCatV1.13B119,2013-02-05 05:05:00,
2013-02-05 00:10:00,25.3,19.1,29.69,South,188,0.0,1.0,77,0.00,,,0.00,0,WeatherCatV1.13B119,2013-02-05 05:10:00,
2013-02-05 00:15:00,25.5,19.6,29.69,South,188,0.0,0.0,78,0.00,,,0.00,0,WeatherCatV1.13B119,2013-02-05 05:15:00,
2013-02-05 00:20:00,25.6,20.0,29.69,South,188,0.0,0.0,79,0.00,,,0.00,0,WeatherCatV1.13B119,2013-02-05 05:20:00,
2013-02-05 00:25:00,25.7,20.1,29.69,South,188,0.0,0.0,79,0.00,,,0.00,0,WeatherCatV1.13B119,2013-02-05 05:25:00,
2013-02-05 00:30:00,25.8,20.5,29.69,South,188,0.0,0.0,80,0.00,,,0.00,0,WeatherCatV1.13B119,2013-02-05 05:30:00,
2013-02-05 00:35:00,26.0,21.0,29.68,South,188,0.0,0.0,81,0.00,,,0.00,0,WeatherCatV1.13B119,2013-02-05 05:35:00,
2013-02-05 00:40:00,26.1,21.1,29.68,South,188,0.0,0.0,81,0.00,,,0.00,0,WeatherCatV1.13B119,2013-02-05 05:40:00,
2013-02-05 00:45:00,26.1,21.1,29.68,South,188,0.0,0.0,81,0.00,,,0.00,0,WeatherCatV1.13B119,2013-02-05 05:45:00,
2013-02-05 00:50:00,26.2,21.2,29.68,South,188,0.0,0.0,81,0.00,,,0.00,0,WeatherCatV1.13B119,2013-02-05 05:50:00,
2013-02-05 00:55:00,26.3,21.6,29.68,South,188,0.0,0.0,82,0.00,,,0.00,0,WeatherCatV1.13B119,2013-02-05 05:55:00,
2013-02-05 01:00:00,26.3,21.6,29.67,South,188,0.0,0.0,82,0.00,,,0.00,0,WeatherCatV1.13B119,2013-02-05 06:00:00,
2013-02-05 01:05:00,26.3,21.6,29.68,South,188,0.0,0.0,82,0.00,,,0.00,0,WeatherCatV1.13B119,2013-02-05 06:05:00,
2013-02-05 01:10:00,26.3,21.6,29.68,South,188,0.0,0.0,82,0.00,,,0.00,0,WeatherCatV1.13B119,2013-02-05 06:10:00,
2013-02-05 01:15:00,26.4,22.0,29.68,South,188,0.0,0.0,83,0.00,,,0.00,0,WeatherCatV1.13B119,2013-02-05 06:15:00,
2013-02-05 01:20:00,26.4,22.0,29.68,South,188,0.0,0.0,83,0.00,,,0.00,0,WeatherCatV1.13B119,2013-02-05 06:20:00,
2013-02-05 01:25:00,26.5,22.3,29.68,South,188,0.0,0.0,84,0.00,,,0.00,0,WeatherCatV1.13B119,2013-02-05 06:25:00,
2013-02-05 01:30:00,26.5,22.3,29.68,South,188,0.0,0.0,84,0.00,,,0.00,0,WeatherCatV1.13B119,2013-02-05 06:30:00,
2013-02-05 01:35:00,26.5,22.3,29.68,South,188,0.0,0.0,84,0.00,,,0.00,0,WeatherCatV1.13B119,2013-02-05 06:35:00,
2013-02-05 01:40:00,26.5,22.3,29.68,South,188,0.0,0.0,84,0.00,,,0.00,0,WeatherCatV1.13B119,2013-02-05 06:40:00,
2013-02-05 01:45:00,26.5,22.6,29.68,South,188,0.0,0.0,85,0.00,,,0.00,0,WeatherCatV1.13B119,2013-02-05 06:45:00,
2013-02-05 01:50:00,26.6,22.4,29.68,South,188,0.0,0.0,84,0.00,,,0.00,0,WeatherCatV1.13B119,2013-02-05 06:50:00,
2013-02-05 01:55:00,26.6,22.4,29.68,South,188,0.0,0.0,84,0.00,,,0.00,0,WeatherCatV1.13B119,2013-02-05 06:55:00,
2013-02-05 02:00:00,26.6,22.4,29.68,South,188,0.0,0.0,84,0.00,,,0.00,0,WeatherCatV1.13B119,2013-02-05 07:00:00,
2013-02-05 02:05:00,26.6,22.7,29.67,South,188,0.0,0.0,85,0.00,,,0.00,0,WeatherCatV1.13B119,2013-02-05 07:05:00,
2013-02-05 02:10:00,26.6,22.7,29.67,South,188,0.0,0.0,85,0.00,,,0.00,0,WeatherCatV1.13B119,2013-02-05 07:10:00,
2013-02-05 02:15:00,26.6,22.7,29.67,South,188,0.0,0.0,85,0.00,,,0.00,0,WeatherCatV1.13B119,2013-02-05 07:15:00,
2013-02-05 02:20:00,26.6,22.7,29.67,South,188,0.0,0.0,85,0.00,,,0.00,0,WeatherCatV1.13B119,2013-02-05 07:20:00,
2013-02-05 02:25:00,26.7,22.8,29.67,South,188,0.0,0.0,85,0.00,,,0.00,0,WeatherCatV1.13B119,2013-02-05 07:25:00,
2013-02-05 02:30:00,26.7,22.8,29.67,South,188,0.0,0.0,85,0.00,,,0.00,0,WeatherCatV1.13B119,2013-02-05 07:30:00,
2013-02-05 02:35:00,26.7,23.1,29.67,South,188,0.0,0.0,86,0.00,,,0.00,0,WeatherCatV1.13B119,2013-02-05 07:35:00,
2013-02-05 02:40:00,26.7,23.1,29.67,South,188,0.0,0.0,86,0.00,,,0.00,0,WeatherCatV1.13B119,2013-02-05 07:40:00,
2013-02-05 02:45:00,26.7,23.1,29.67,South,188,0.0,0.0,86,0.00,,,0.00,0,WeatherCatV1.13B119,2013-02-05 07:45:00,
2013-02-05 02:50:00,26.7,23.1,29.67,South,188,0.0,1.0,86,0.00,,,0.00,0,WeatherCatV1.13B119,2013-02-05 07:50:00,
2013-02-05 02:55:00,26.7,23.4,29.67,South,188,0.0,0.0,87,0.00,,,0.00,0,WeatherCatV1.13B119,2013-02-05 07:55:00,
2013-02-05 03:00:00,26.7,23.4,29.67,South,188,0.0,0.0,87,0.00,,,0.00,0,WeatherCatV1.13B119,2013-02-05 08:00:00,
2013-02-05 03:05:00,26.7,23.4,29.67,South,188,0.0,0.0,87,0.00,,,0.00,0,WeatherCatV1.13B119,2013-02-05 08:05:00,
2013-02-05 03:10:00,26.7,23.4,29.67,South,188,0.0,0.0,87,0.00,,,0.00,0,WeatherCatV1.13B119,2013-02-05 08:10:00,
2013-02-05 03:15:00,26.7,23.4,29.67,South,188,0.0,0.0,87,0.00,,,0.00,0,WeatherCatV1.13B119,2013-02-05 08:15:00,
2013-02-05 03:20:00,26.7,23.6,29.67,South,188,0.0,0.0,88,0.00,,,0.00,0,WeatherCatV1.13B119,2013-02-05 08:20:00,
2013-02-05 03:25:00,26.7,23.6,29.67,South,188,0.0,0.0,88,0.00,,,0.00,0,WeatherCatV1.13B119,2013-02-05 08:25:00,
2013-02-05 03:30:00,26.7,23.6,29.67,South,188,0.0,0.0,88,0.00,,,0.00,0,WeatherCatV1.13B119,2013-02-05 08:30:00,
2013-02-05 03:35:00,26.7,23.4,29.67,South,188,0.0,0.0,87,0.00,,,0.00,0,WeatherCatV1.13B119,2013-02-05 08:35:00,
2013-02-05 03:40:00,26.7,23.6,29.66,South,188,0.0,0.0,88,0.00,,,0.00,0,WeatherCatV1.13B119,2013-02-05 08:40:00,
2013-02-05 03:45:00,26.6,23.5,29.65,South,188,0.0,0.0,88,0.00,,,0.00,0,WeatherCatV1.13B119,2013-02-05 08:45:00,
2013-02-05 03:50:00,26.6,23.8,29.65,South,188,0.0,0.0,89,0.00,,,0.00,0,WeatherCatV1.13B119,2013-02-05 08:50:00,
2013-02-05 03:55:00,26.6,23.8,29.65,South,188,0.0,0.0,89,0.00,,,0.00,0,WeatherCatV1.13B119,2013-02-05 08:55:00,
2013-02-05 04:00:00,26.6,23.8,29.66,South,188,0.0,0.0,89,0.00,,,0.00,0,WeatherCatV1.13B119,2013-02-05 09:00:00,
2013-02-05 04:05:00,26.6,23.8,29.66,South,188,0.0,0.0,89,0.00,,,0.00,0,WeatherCatV1.13B119,2013-02-05 09:05:00,
2013-02-05 04:10:00,26.6,24.1,29.66,South,188,0.0,0.0,90,0.00,,,0.00,0,WeatherCatV1.13B119,2013-02-05 09:10:00,
2013-02-05 04:15:00,26.6,24.1,29.66,South,188,0.0,0.0,90,0.00,,,0.00,0,WeatherCatV1.13B119,2013-02-05 09:15:00,
2013-02-05 04:20:00,26.6,24.1,29.65,South,188,0.0,0.0,90,0.00,,,0.00,0,WeatherCatV1.13B119,2013-02-05 09:20:00,
2013-02-05 04:25:00,26.6,24.1,29.66,South,188,0.0,0.0,90,0.00,,,0.00,0,WeatherCatV1.13B119,2013-02-05 09:25:00,
2013-02-05 04:30:00,26.5,24.0,29.66,South,188,0.0,0.0,90,0.00,,,0.00,0,WeatherCatV1.13B119,2013-02-05 09:30:00,
2013-02-05 04:35:00,26.5,24.0,29.65,South,188,0.0,0.0,90,0.00,,,0.00,0,WeatherCatV1.13B119,2013-02-05 09:35:00,
2013-02-05 04:40:00,26.5,24.2,29.65,South,188,0.0,0.0,91,0.00,,,0.00,0,WeatherCatV1.13B119,2013-02-05 09:40:00,
2013-02-05 04:45:00,26.5,24.2,29.65,South,188,0.0,0.0,91,0.00,,,0.00,0,WeatherCatV1.13B119,2013-02-05 09:45:00,
2013-02-05 04:50:00,26.5,24.2,29.65,South,188,0.0,0.0,91,0.00,,,0.00,0,WeatherCatV1.13B119,2013-02-05 09:50:00,
2013-02-05 04:55:00,26.5,24.2,29.65,South,188,0.0,0.0,91,0.00,,,0.00,0,WeatherCatV1.13B119,2013-02-05 09:55:00,
2013-02-05 05:00:00,26.5,24.2,29.66,South,188,0.0,0.0,91,0.00,,,0.00,0,WeatherCatV1.13B119,2013-02-05 10:00:00,
2013-02-05 05:05:00,26.6,24.3,29.66,South,188,0.0,0.0,91,0.00,,,0.00,0,WeatherCatV1.13B119,2013-02-05 10:05:00,
2013-02-05 05:10:00,26.5,24.2,29.66,South,188,0.0,1.0,91,0.00,,,0.00,0,WeatherCatV1.13B119,2013-02-05 10:10:00,
2013-02-05 05:15:00,26.5,24.2,29.66,WNW,282,0.0,2.0,91,0.00,,,0.00,0,WeatherCatV1.13B119,2013-02-05 10:15:00,
2013-02-05 05:20:00,26.5,24.2,29.66,WNW,291,0.0,1.0,91,0.00,,,0.00,0,WeatherCatV1.13B119,2013-02-05 10:20:00,
2013-02-05 05:25:00,26.4,24.1,29.66,NW,306,0.0,1.0,91,0.00,,,0.00,0,WeatherCatV1.13B119,2013-02-05 10:25:00,
2013-02-05 05:30:00,26.4,24.1,29.67,NNW,327,0.0,1.0,91,0.00,,,0.00,0,WeatherCatV1.13B119,2013-02-05 10:30:00,
2013-02-05 05:35:00,26.3,24.0,29.66,NNW,327,0.0,1.0,91,0.00,,,0.00,0,WeatherCatV1.13B119,2013-02-05 10:35:00,
2013-02-05 05:40:00,26.3,23.8,29.66,NNW,327,0.0,2.0,90,0.00,,,0.00,0,WeatherCatV1.13B119,2013-02-05 10:40:00,
2013-02-05 05:45:00,26.2,23.7,29.65,NNW,327,0.0,1.0,90,0.00,,,0.00,0,WeatherCatV1.13B119,2013-02-05 10:45:00,
2013-02-05 05:50:00,26.2,23.9,29.66,NNW,327,0.0,0.0,91,0.00,,,0.00,0,WeatherCatV1.13B119,2013-02-05 10:50:00,
2013-02-05 05:55:00,26.2,23.9,29.66,NNW,327,0.0,0.0,91,0.00,,,0.00,0,WeatherCatV1.13B119,2013-02-05 10:55:00,
2013-02-05 06:00:00,26.2,23.9,29.66,NNW,327,0.0,0.0,91,0.00,,,0.00,0,WeatherCatV1.13B119,2013-02-05 11:00:00,
2013-02-05 06:05:00,26.2,23.9,29.66,NNW,327,0.0,0.0,91,0.00,,,0.00,0,WeatherCatV1.13B119,2013-02-05 11:05:00,
2013-02-05 06:10:00,26.2,23.9,29.66,NNW,327,0.0,0.0,91,0.00,,,0.00,0,WeatherCatV1.13B119,2013-02-05 11:10:00,
2013-02-05 06:12:00,26.2,23.9,29.66,NNW,327,0.0,0.0,91,0.00,,,0.00,0,WeatherCatV1.13B119,2013-02-05 11:12:00,
2013-02-05 06:17:00,26.2,23.9,29.66,NNW,327,0.0,0.0,91,0.00,,,0.00,0,WeatherCatV1.13B119,2013-02-05 11:17:00,
2013-02-05 06:22:00,26.2,23.9,29.66,NNW,327,0.0,0.0,91,0.00,,,0.00,0,WeatherCatV1.13B119,2013-02-05 11:22:00,
2013-02-05 06:27:00,26.2,23.9,29.66,NNW,327,0.0,0.0,91,0.00,,,0.00,0,WeatherCatV1.13B119,2013-02-05 11:27:00,
2013-02-05 06:32:00,26.2,23.9,29.67,NNW,327,0.0,0.0,91,0.00,,,0.00,0,WeatherCatV1.13B119,2013-02-05 11:32:00,
2013-02-05 06:37:00,26.2,23.9,29.67,NNW,327,0.0,0.0,91,0.00,,,0.00,0,WeatherCatV1.13B119,2013-02-05 11:37:00,
2013-02-05 06:42:00,26.1,23.8,29.67,NNW,327,0.0,0.0,91,0.00,,,0.00,0,WeatherCatV1.13B119,2013-02-05 11:42:00,
2013-02-05 06:47:00,26.1,23.8,29.67,NE,34,1.0,2.0,91,0.00,,,0.00,0,WeatherCatV1.13B119,2013-02-05 11:47:00,
2013-02-05 06:52:00,26.1,23.8,29.67,ENE,61,0.0,3.0,91,0.00,,,0.00,0,WeatherCatV1.13B119,2013-02-05 11:52:00,
2013-02-05 06:57:00,26.1,23.8,29.68,ENE,61,0.0,1.0,91,0.00,,,0.00,0,WeatherCatV1.13B119,2013-02-05 11:57:00,
2013-02-05 07:02:00,26.1,23.8,29.68,ENE,61,0.0,2.0,91,0.00,,,0.00,0,WeatherCatV1.13B119,2013-02-05 12:02:00,
2013-02-05 07:07:00,26.1,23.8,29.67,ENE,61,0.0,0.0,91,0.00,,,0.00,0,WeatherCatV1.13B119,2013-02-05 12:07:00,
2013-02-05 07:12:00,26.1,23.8,29.67,ENE,61,0.0,2.0,91,0.00,,,0.00,0,WeatherCatV1.13B119,2013-02-05 12:12:00,
2013-02-05 07:17:00,26.1,23.8,29.67,ENE,61,0.0,0.0,91,0.00,,,0.00,0,WeatherCatV1.13B119,2013-02-05 12:17:00,
2013-02-05 07:22:00,26.0,23.7,29.67,ENE,61,0.0,1.0,91,0.00,,,0.00,0,WeatherCatV1.13B119,2013-02-05 12:22:00,
2013-02-05 07:27:00,26.0,23.7,29.68,ENE,61,0.0,0.0,91,0.00,,,0.00,5,WeatherCatV1.13B119,2013-02-05 12:27:00,
2013-02-05 07:32:00,26.1,23.8,29.68,ENE,61,0.0,2.0,91,0.00,,,0.00,7,WeatherCatV1.13B119,2013-02-05 12:32:00,
2013-02-05 07:37:00,26.1,23.8,29.68,ENE,61,1.0,2.0,91,0.00,,,0.00,7,WeatherCatV1.13B119,2013-02-05 12:37:00,
2013-02-05 07:42:00,26.0,23.7,29.68,ENE,61,1.0,1.0,91,0.00,,,0.00,9,WeatherCatV1.13B119,2013-02-05 12:42:00,
2013-02-05 07:47:00,26.1,23.8,29.68,ENE,61,0.0,2.0,91,0.00,,,0.00,9,WeatherCatV1.13B119,2013-02-05 12:47:00,
2013-02-05 07:52:00,26.1,23.8,29.68,NNW,340,2.0,3.0,91,0.00,,,0.00,11,WeatherCatV1.13B119,2013-02-05 12:52:00,
2013-02-05 07:57:00,26.1,23.8,29.69,NE,36,1.0,2.0,91,0.00,,,0.00,11,WeatherCatV1.13B119,2013-02-05 12:57:00,
2013-02-05 08:02:00,26.1,23.6,29.69,NE,36,0.0,1.0,90,0.00,,,0.00,12,WeatherCatV1.13B119,2013-02-05 13:02:00,
2013-02-05 08:07:00,26.1,23.6,29.69,ENE,70,3.0,4.0,90,0.00,,,0.00,14,WeatherCatV1.13B119,2013-02-05 13:07:00,
2013-02-05 08:12:00,26.2,23.7,29.70,ENE,70,1.0,2.0,90,0.00,,,0.00,14,WeatherCatV1.13B119,2013-02-05 13:12:00,
2013-02-05 08:17:00,26.2,23.7,29.70,ENE,70,2.0,2.0,90,0.00,,,0.00,14,WeatherCatV1.13B119,2013-02-05 13:17:00,
2013-02-05 08:22:00,26.2,23.7,29.69,NE,55,0.0,2.0,90,0.00,,,0.00,19,WeatherCatV1.13B119,2013-02-05 13:22:00,
2013-02-05 08:27:00,26.2,23.7,29.69,NE,55,0.0,1.0,90,0.00,,,0.00,18,WeatherCatV1.13B119,2013-02-05 13:27:00,
2013-02-05 08:32:00,26.2,23.7,29.69,NE,34,2.0,3.0,90,0.00,,,0.00,21,WeatherCatV1.13B119,2013-02-05 13:32:00,
2013-02-05 08:37:00,26.3,23.8,29.69,ENE,62,0.0,2.0,90,0.00,,,0.00,16,WeatherCatV1.13B119,2013-02-05 13:37:00,
2013-02-05 08:42:00,26.3,23.8,29.70,NE,34,0.0,2.0,90,0.00,,,0.00,18,WeatherCatV1.13B119,2013-02-05 13:42:00,
2013-02-05 08:47:00,26.3,23.8,29.70,ENE,65,2.0,3.0,90,0.00,,,0.00,16,WeatherCatV1.13B119,2013-02-05 13:47:00,
2013-02-05 08:52:00,26.3,23.5,29.69,NNE,22,0.0,2.0,89,0.00,,,0.00,14,WeatherCatV1.13B119,2013-02-05 13:52:00,
2013-02-05 08:57:00,26.3,23.5,29.69,ENE,57,1.0,2.0,89,0.00,,,0.00,11,WeatherCatV1.13B119,2013-02-05 13:57:00,
2013-02-05 09:02:00,26.4,23.6,29.69,NE,49,0.0,2.0,89,0.00,,,0.00,23,WeatherCatV1.13B119,2013-02-05 14:02:00,
2013-02-05 09:07:00,26.4,23.6,29.69,NE,40,1.0,2.0,89,0.00,,,0.00,28,WeatherCatV1.13B119,2013-02-05 14:07:00,
2013-02-05 09:12:00,26.4,23.6,29.69,ENE,59,0.0,1.0,89,0.00,,,0.00,35,WeatherCatV1.13B119,2013-02-05 14:12:00,
2013-02-05 09:17:00,26.5,23.7,29.69,ENE,59,0.0,3.0,89,0.00,,,0.00,49,WeatherCatV1.13B119,2013-02-05 14:17:00,
2013-02-05 09:22:00,26.7,23.9,29.69,ENE,59,2.0,2.0,89,0.00,,,0.00,54,WeatherCatV1.13B119,2013-02-05 14:22:00,
2013-02-05 09:27:00,26.7,23.9,29.69,ENE,59,2.0,3.0,89,0.00,,,0.00,47,WeatherCatV1.13B119,2013-02-05 14:27:00,
2013-02-05 09:32:00,26.8,24.0,29.70,ENE,59,2.0,2.0,89,0.00,,,0.00,42,WeatherCatV1.13B119,2013-02-05 14:32:00,
2013-02-05 09:37:00,26.9,24.1,29.70,North,355,0.0,3.0,89,0.00,,,0.00,42,WeatherCatV1.13B119,2013-02-05 14:37:00,
2013-02-05 09:42:00,27.1,24.3,29.70,ENE,69,0.0,4.0,89,0.00,,,0.00,47,WeatherCatV1.13B119,2013-02-05 14:42:00,
2013-02-05 09:47:00,27.2,24.4,29.71,ENE,69,0.0,1.0,89,0.00,,,0.00,53,WeatherCatV1.13B119,2013-02-05 14:47:00,
2013-02-05 09:52:00,27.4,24.3,29.71,ENE,69,1.0,3.0,88,0.00,,,0.00,53,WeatherCatV1.13B119,2013-02-05 14:52:00,
2013-02-05 09:57:00,27.4,24.3,29.71,NE,48,1.0,2.0,88,0.00,,,0.00,49,WeatherCatV1.13B119,2013-02-05 14:57:00,
2013-02-05 10:02:00,27.5,24.4,29.71,NNE,16,0.0,2.0,88,0.00,,,0.00,49,WeatherCatV1.13B119,2013-02-05 15:02:00,
2013-02-05 10:07:00,27.6,24.5,29.71,North,355,2.0,3.0,88,0.00,,,0.00,60,WeatherCatV1.13B119,2013-02-05 15:07:00,
2013-02-05 10:12:00,27.8,24.4,29.71,NNE,19,2.0,3.0,87,0.00,,,0.00,60,WeatherCatV1.13B119,2013-02-05 15:12:00,
2013-02-05 10:17:00,27.9,24.5,29.71,ENE,70,2.0,4.0,87,0.00,,,0.00,62,WeatherCatV1.13B119,2013-02-05 15:17:00,
2013-02-05 10:22:00,28.0,24.6,29.72,NE,50,0.0,1.0,87,0.00,,,0.00,60,WeatherCatV1.13B119,2013-02-05 15:22:00,
2013-02-05 10:27:00,28.1,24.7,29.72,NE,50,1.0,1.0,87,0.00,,,0.00,56,WeatherCatV1.13B119,2013-02-05 15:27:00,
2013-02-05 10:32:00,28.3,24.9,29.72,NE,45,1.0,1.0,87,0.00,,,0.00,44,WeatherCatV1.13B119,2013-02-05 15:32:00,
2013-02-05 10:37:00,28.3,24.7,29.71,NNE,12,0.0,2.0,86,0.00,,,0.00,44,WeatherCatV1.13B119,2013-02-05 15:37:00,
2013-02-05 10:42:00,28.4,24.8,29.71,NNE,12,1.0,1.0,86,0.00,,,0.00,79,WeatherCatV1.13B119,2013-02-05 15:42:00,
2013-02-05 10:47:00,28.7,25.1,29.71,NE,43,0.0,2.0,86,0.00,,,0.00,95,WeatherCatV1.13B119,2013-02-05 15:47:00,
2013-02-05 10:52:00,28.8,25.2,29.71,NE,46,1.0,2.0,86,0.00,,,0.00,95,WeatherCatV1.13B119,2013-02-05 15:52:00,
2013-02-05 10:57:00,29.0,25.1,29.71,North,355,2.0,4.0,85,0.00,,,0.00,102,WeatherCatV1.13B119,2013-02-05 15:57:00,
2013-02-05 11:02:00,29.2,25.3,29.71,NE,51,2.0,3.0,85,0.00,,,0.00,111,WeatherCatV1.13B119,2013-02-05 16:02:00,
2013-02-05 11:07:00,29.4,25.5,29.71,NE,56,0.0,1.0,85,0.00,,,0.00,111,WeatherCatV1.13B119,2013-02-05 16:07:00,
2013-02-05 11:12:00,29.6,25.7,29.70,ENE,61,1.0,3.0,85,0.00,,,0.00,128,WeatherCatV1.13B119,2013-02-05 16:12:00,
2013-02-05 11:17:00,29.8,25.6,29.70,NNE,33,1.0,2.0,84,0.00,,,0.00,137,WeatherCatV1.13B119,2013-02-05 16:17:00,
2013-02-05 11:22:00,29.9,25.7,29.70,ENE,62,0.0,5.0,84,0.00,,,0.00,146,WeatherCatV1.13B119,2013-02-05 16:22:00,
2013-02-05 11:27:00,30.0,25.5,29.70,ENE,59,0.0,3.0,83,0.00,,,0.00,135,WeatherCatV1.13B119,2013-02-05 16:27:00,
2013-02-05 11:32:00,30.2,26.0,29.70,NE,54,0.0,1.0,84,0.00,,,0.00,163,WeatherCatV1.13B119,2013-02-05 16:32:00,
2013-02-05 11:37:00,30.3,25.8,29.69,ENE,63,0.0,1.0,83,0.00,,,0.00,155,WeatherCatV1.13B119,2013-02-05 16:37:00,
2013-02-05 11:42:00,30.5,26.0,29.69,NE,51,0.0,3.0,83,0.00,,,0.00,179,WeatherCatV1.13B119,2013-02-05 16:42:00,
2013-02-05 11:47:00,30.6,26.1,29.69,NE,51,1.0,2.0,83,0.00,,,0.00,139,WeatherCatV1.13B119,2013-02-05 16:47:00,
2013-02-05 11:52:00,30.7,25.9,29.70,ENE,61,0.0,3.0,82,0.00,,,0.00,113,WeatherCatV1.13B119,2013-02-05 16:52:00,
2013-02-05 11:57:00,30.6,26.1,29.69,ENE,62,0.0,0.0,83,0.00,,,0.00,98,WeatherCatV1.13B119,2013-02-05 16:57:00,
2013-02-05 12:02:00,30.6,25.8,29.69,ENE,62,0.0,0.0,82,0.00,,,0.00,86,WeatherCatV1.13B119,2013-02-05 17:02:00,
2013-02-05 12:07:00,30.5,26.0,29.69,ENE,61,0.0,3.0,83,0.00,,,0.00,88,WeatherCatV1.13B119,2013-02-05 17:07:00,
2013-02-05 12:12:00,30.5,26.0,29.69,ENE,61,2.0,2.0,83,0.00,,,0.00,81,WeatherCatV1.13B119,2013-02-05 17:12:00,
2013-02-05 12:17:00,30.4,25.9,29.69,ENE,61,0.0,1.0,83,0.00,,,0.00,74,WeatherCatV1.13B119,2013-02-05 17:17:00,
2013-02-05 12:22:00,30.5,26.3,29.69,ENE,61,0.0,0.0,84,0.00,,,0.00,72,WeatherCatV1.13B119,2013-02-05 17:22:00,
2013-02-05 12:27:00,30.6,26.1,29.69,ENE,67,0.0,3.0,83,0.00,,,0.00,76,WeatherCatV1.13B119,2013-02-05 17:27:00,
2013-02-05 12:32:00,30.6,26.1,29.69,ENE,67,0.0,1.0,83,0.00,,,0.00,69,WeatherCatV1.13B119,2013-02-05 17:32:00,
2013-02-05 12:37:00,30.6,26.4,29.68,ENE,67,1.0,2.0,84,0.00,,,0.00,81,WeatherCatV1.13B119,2013-02-05 17:37:00,
2013-02-05 12:42:00,30.7,26.2,29.68,ENE,67,0.0,0.0,83,0.00,,,0.00,81,WeatherCatV1.13B119,2013-02-05 17:42:00,
2013-02-05 12:47:00,30.7,26.2,29.68,ENE,67,0.0,1.0,83,0.00,,,0.00,79,WeatherCatV1.13B119,2013-02-05 17:47:00,
2013-02-05 12:52:00,30.7,26.4,29.68,ENE,67,1.0,2.0,84,0.00,,,0.00,76,WeatherCatV1.13B119,2013-02-05 17:52:00,
2013-02-05 12:57:00,30.8,26.3,29.68,NE,40,0.0,1.0,83,0.00,,,0.00,79,WeatherCatV1.13B119,2013-02-05 17:57:00,
2013-02-05 13:02:00,30.8,26.3,29.67,NE,40,1.0,2.0,83,0.00,,,0.00,83,WeatherCatV1.13B119,2013-02-05 18:02:00,
2013-02-05 13:07:00,30.9,26.6,29.67,NE,55,1.0,1.0,84,0.00,,,0.00,81,WeatherCatV1.13B119,2013-02-05 18:07:00,
2013-02-05 13:12:00,30.9,26.4,29.67,NE,55,0.0,1.0,83,0.00,,,0.00,77,WeatherCatV1.13B119,2013-02-05 18:12:00,
2013-02-05 13:17:00,31.0,26.7,29.67,NE,55,0.0,1.0,84,0.00,,,0.00,86,WeatherCatV1.13B119,2013-02-05 18:17:00,
2013-02-05 13:22:00,31.0,26.7,29.67,NE,53,1.0,3.0,84,0.00,,,0.00,79,WeatherCatV1.13B119,2013-02-05 18:22:00,
2013-02-05 13:27:00,30.9,26.4,29.66,NE,47,1.0,3.0,83,0.00,,,0.00,83,WeatherCatV1.13B119,2013-02-05 18:27:00,
2013-02-05 13:32:00,30.8,26.5,29.66,ENE,59,1.0,3.0,84,0.00,,,0.00,74,WeatherCatV1.13B119,2013-02-05 18:32:00,
2013-02-05 13:37:00,30.8,26.5,29.66,ENE,64,4.0,4.0,84,0.00,,,0.00,76,WeatherCatV1.13B119,2013-02-05 18:37:00,
2013-02-05 13:42:00,30.8,26.5,29.66,NE,53,0.0,2.0,84,0.00,,,0.00,74,WeatherCatV1.13B119,2013-02-05 18:42:00,
2013-02-05 13:47:00,30.9,26.6,29.66,NE,53,0.0,2.0,84,0.00,,,0.00,72,WeatherCatV1.13B119,2013-02-05 18:47:00,
2013-02-05 13:52:00,31.0,26.7,29.65,NE,53,0.0,3.0,84,0.00,,,0.00,67,WeatherCatV1.13B119,2013-02-05 18:52:00,
2013-02-05 13:57:00,31.1,26.8,29.65,NE,53,0.0,0.0,84,0.00,,,0.00,65,WeatherCatV1.13B119,2013-02-05 18:57:00,
2013-02-05 14:02:00,31.1,26.8,29.65,NE,53,0.0,0.0,84,0.00,,,0.00,56,WeatherCatV1.13B119,2013-02-05 19:02:00,
2013-02-05 14:07:00,31.2,26.9,29.65,NE,53,0.0,0.0,84,0.00,,,0.00,51,WeatherCatV1.13B119,2013-02-05 19:07:00,
2013-02-05 14:12:00,31.3,27.0,29.65,NE,53,0.0,0.0,84,0.00,,,0.00,44,WeatherCatV1.13B119,2013-02-05 19:12:00,
2013-02-05 14:17:00,31.4,27.1,29.65,NE,53,0.0,1.0,84,0.00,,,0.00,47,WeatherCatV1.13B119,2013-02-05 19:17:00,
2013-02-05 14:22:00,31.4,26.8,29.65,NE,53,0.0,0.0,83,0.00,,,0.00,47,WeatherCatV1.13B119,2013-02-05 19:22:00,
2013-02-05 14:27:00,31.4,26.8,29.65,NE,53,1.0,1.0,83,0.00,,,0.00,53,WeatherCatV1.13B119,2013-02-05 19:27:00,
2013-02-05 14:32:00,31.3,26.7,29.65,NE,53,0.0,1.0,83,0.00,,,0.00,46,WeatherCatV1.13B119,2013-02-05 19:32:00,
2013-02-05 14:37:00,31.3,26.7,29.65,NE,53,0.0,0.0,83,0.00,,,0.00,46,WeatherCatV1.13B119,2013-02-05 19:37:00,
2013-02-05 14:42:00,31.3,27.0,29.65,NE,53,1.0,1.0,84,0.00,,,0.00,39,WeatherCatV1.13B119,2013-02-05 19:42:00,
2013-02-05 14:47:00,31.2,26.9,29.65,ENE,61,0.0,2.0,84,0.00,,,0.00,37,WeatherCatV1.13B119,2013-02-05 19:47:00,
2013-02-05 14:52:00,31.2,26.9,29.65,ENE,61,0.0,0.0,84,0.00,,,0.00,26,WeatherCatV1.13B119,2013-02-05 19:52:00,
2013-02-05 14:57:00,31.2,26.9,29.65,ENE,61,0.0,1.0,84,0.00,,,0.00,26,WeatherCatV1.13B119,2013-02-05 19:57:00,
2013-02-05 15:02:00,31.2,26.9,29.66,ENE,61,0.0,1.0,84,0.00,,,0.00,28,WeatherCatV1.13B119,2013-02-05 20:02:00,
2013-02-05 15:07:00,31.2,26.9,29.66,ENE,61,1.0,1.0,84,0.00,,,0.00,28,WeatherCatV1.13B119,2013-02-05 20:07:00,
2013-02-05 15:12:00,31.2,26.9,29.66,ENE,61,0.0,0.0,84,0.00,,,0.00,28,WeatherCatV1.13B119,2013-02-05 20:12:00,
2013-02-05 15:17:00,31.2,26.9,29.66,ENE,61,0.0,0.0,84,0.00,,,0.00,26,WeatherCatV1.13B119,2013-02-05 20:17:00,
2013-02-05 15:22:00,31.2,26.9,29.66,ENE,61,0.0,0.0,84,0.00,,,0.00,21,WeatherCatV1.13B119,2013-02-05 20:22:00,
2013-02-05 15:27:00,31.2,26.9,29.65,ENE,61,1.0,1.0,84,0.00,,,0.00,51,WeatherCatV1.13B119,2013-02-05 20:27:00,
2013-02-05 15:32:00,31.2,27.2,29.65,ENE,61,0.0,0.0,85,0.00,,,0.00,39,WeatherCatV1.13B119,2013-02-05 20:32:00,
2013-02-05 15:37:00,31.2,27.2,29.65,ENE,61,0.0,1.0,85,0.00,,,0.00,33,WeatherCatV1.13B119,2013-02-05 20:37:00,
2013-02-05 15:42:00,31.3,27.3,29.66,ENE,61,0.0,0.0,85,0.00,,,0.00,37,WeatherCatV1.13B119,2013-02-05 20:42:00,
2013-02-05 15:47:00,31.2,26.9,29.65,ENE,61,0.0,1.0,84,0.00,,,0.00,39,WeatherCatV1.13B119,2013-02-05 20:47:00,
2013-02-05 15:52:00,31.2,26.9,29.65,ENE,61,0.0,0.0,84,0.00,,,0.00,39,WeatherCatV1.13B119,2013-02-05 20:52:00,
2013-02-05 15:57:00,31.2,27.2,29.65,ENE,61,1.0,2.0,85,0.00,,,0.00,47,WeatherCatV1.13B119,2013-02-05 20:57:00,
2013-02-05 16:02:00,31.2,26.9,29.65,ENE,61,0.0,2.0,84,0.00,,,0.00,44,WeatherCatV1.13B119,2013-02-05 21:02:00,
2013-02-05 16:07:00,31.2,26.9,29.65,ENE,61,0.0,1.0,84,0.00,,,0.00,35,WeatherCatV1.13B119,2013-02-05 21:07:00,
2013-02-05 16:12:00,31.2,26.9,29.65,ENE,61,0.0,1.0,84,0.00,,,0.00,28,WeatherCatV1.13B119,2013-02-05 21:12:00,
2013-02-05 16:17:00,31.1,26.8,29.65,ENE,61,0.0,2.0,84,0.00,,,0.00,21,WeatherCatV1.13B119,2013-02-05 21:17:00,
2013-02-05 16:22:00,31.1,26.8,29.64,ENE,61,1.0,2.0,84,0.00,,,0.00,25,WeatherCatV1.13B119,2013-02-05 21:22:00,
2013-02-05 16:27:00,31.2,27.2,29.65,ENE,61,0.0,0.0,85,0.00,,,0.00,26,WeatherCatV1.13B119,2013-02-05 21:27:00,
2013-02-05 16:32:00,31.2,27.2,29.65,ENE,61,0.0,0.0,85,0.00,,,0.00,26,WeatherCatV1.13B119,2013-02-05 21:32:00,
2013-02-05 16:37:00,31.2,27.2,29.65,ENE,61,1.0,1.0,85,0.00,,,0.00,25,WeatherCatV1.13B119,2013-02-05 21:37:00,
2013-02-05 16:42:00,31.3,27.3,29.64,ENE,61,0.0,0.0,85,0.00,,,0.00,16,WeatherCatV1.13B119,2013-02-05 21:42:00,
2013-02-05 16:47:00,31.3,27.3,29.64,ENE,61,0.0,0.0,85,0.00,,,0.00,11,WeatherCatV1.13B119,2013-02-05 21:47:00,
2013-02-05 16:52:00,31.2,27.2,29.64,ENE,61,0.0,2.0,85,0.00,,,0.00,11,WeatherCatV1.13B119,2013-02-05 21:52:00,
2013-02-05 16:57:00,31.2,27.2,29.64,ENE,61,0.0,1.0,85,0.00,,,0.00,12,WeatherCatV1.13B119,2013-02-05 21:57:00,
2013-02-05 17:02:00,31.2,27.2,29.64,ENE,61,0.0,2.0,85,0.00,,,0.00,12,WeatherCatV1.13B119,2013-02-05 22:02:00,
2013-02-05 17:07:00,31.3,27.3,29.64,ENE,61,0.0,0.0,85,0.00,,,0.00,9,WeatherCatV1.13B119,2013-02-05 22:07:00,
2013-02-05 17:12:00,31.3,27.3,29.64,ENE,61,0.0,0.0,85,0.00,,,0.00,0,WeatherCatV1.13B119,2013-02-05 22:12:00,
2013-02-05 17:17:00,31.3,27.3,29.64,ENE,61,0.0,0.0,85,0.00,,,0.00,0,WeatherCatV1.13B119,2013-02-05 22:17:00,
2013-02-05 17:22:00,31.2,27.2,29.64,ENE,61,0.0,0.0,85,0.00,,,0.00,0,WeatherCatV1.13B119,2013-02-05 22:22:00,
2013-02-05 17:27:00,31.2,27.2,29.64,ENE,61,0.0,0.0,85,0.00,,,0.00,0,WeatherCatV1.13B119,2013-02-05 22:27:00,
2013-02-05 17:32:00,31.2,27.2,29.64,ENE,61,0.0,0.0,85,0.00,,,0.00,0,WeatherCatV1.13B119,2013-02-05 22:32:00,
2013-02-05 17:37:00,31.2,27.2,29.64,ENE,61,0.0,1.0,85,0.00,,,0.00,0,WeatherCatV1.13B119,2013-02-05 22:37:00,
2013-02-05 17:42:00,31.2,27.2,29.64,ENE,61,0.0,0.0,85,0.00,,,0.00,0,WeatherCatV1.13B119,2013-02-05 22:42:00,
2013-02-05 17:47:00,31.1,27.1,29.64,ENE,61,0.0,0.0,85,0.00,,,0.00,0,WeatherCatV1.13B119,2013-02-05 22:47:00,
2013-02-05 17:52:00,31.1,27.1,29.64,ENE,61,1.0,2.0,85,0.00,,,0.00,0,WeatherCatV1.13B119,2013-02-05 22:52:00,
2013-02-05 17:57:00,31.1,27.1,29.64,ENE,61,0.0,2.0,85,0.00,,,0.00,0,WeatherCatV1.13B119,2013-02-05 22:57:00,
2013-02-05 18:02:00,31.1,27.1,29.64,ENE,61,0.0,1.0,85,0.00,,,0.00,0,WeatherCatV1.13B119,2013-02-05 23:02:00,
2013-02-05 18:07:00,31.1,27.1,29.64,ENE,61,0.0,0.0,85,0.00,,,0.00,0,WeatherCatV1.13B119,2013-02-05 23:07:00,
2013-02-05 18:12:00,31.1,27.4,29.64,ENE,61,0.0,0.0,86,0.00,,,0.00,0,WeatherCatV1.13B119,2013-02-05 23:12:00,
2013-02-05 18:17:00,31.1,27.4,29.64,ENE,61,0.0,1.0,86,0.00,,,0.00,0,WeatherCatV1.13B119,2013-02-05 23:17:00,
2013-02-05 18:22:00,31.1,27.4,29.64,ENE,61,0.0,0.0,86,0.00,,,0.00,0,WeatherCatV1.13B119,2013-02-05 23:22:00,
2013-02-05 18:27:00,31.1,27.4,29.64,ENE,61,0.0,0.0,86,0.00,,,0.00,0,WeatherCatV1.13B119,2013-02-05 23:27:00,
2013-02-05 18:32:00,31.0,27.6,29.64,ENE,61,0.0,0.0,87,0.00,,,0.00,0,WeatherCatV1.13B119,2013-02-05 23:32:00,
2013-02-05 18:37:00,31.0,27.6,29.65,ENE,61,0.0,1.0,87,0.00,,,0.00,0,WeatherCatV1.13B119,2013-02-05 23:37:00,
2013-02-05 18:42:00,31.0,27.6,29.65,ENE,61,0.0,0.0,87,0.00,,,0.00,0,WeatherCatV1.13B119,2013-02-05 23:42:00,
2013-02-05 18:47:00,30.9,27.5,29.65,ENE,61,0.0,0.0,87,0.00,,,0.00,0,WeatherCatV1.13B119,2013-02-05 23:47:00,
2013-02-05 18:52:00,30.9,27.5,29.65,ENE,61,0.0,0.0,87,0.00,,,0.00,0,WeatherCatV1.13B119,2013-02-05 23:52:00,
2013-02-05 18:57:00,30.8,27.4,29.65,ENE,61,0.0,1.0,87,0.00,,,0.00,0,WeatherCatV1.13B119,2013-02-05 23:57:00,
2013-02-05 19:02:00,30.7,27.3,29.65,ENE,61,0.0,0.0,87,0.00,,,0.00,0,WeatherCatV1.13B119,2013-02-06 00:02:00,
2013-02-05 19:07:00,30.7,27.6,29.65,ENE,61,0.0,0.0,88,0.00,,,0.00,0,WeatherCatV1.13B119,2013-02-06 00:07:00,
2013-02-05 19:12:00,30.7,27.6,29.65,ENE,61,0.0,0.0,88,0.00,,,0.00,0,WeatherCatV1.13B119,2013-02-06 00:12:00,
2013-02-05 19:17:00,30.7,27.6,29.65,ENE,61,0.0,0.0,88,0.00,,,0.00,0,WeatherCatV1.13B119,2013-02-06 00:17:00,
2013-02-05 19:22:00,30.6,27.5,29.65,ENE,61,0.0,0.0,88,0.00,,,0.00,0,WeatherCatV1.13B119,2013-02-06 00:22:00,
2013-02-05 19:27:00,30.6,27.5,29.65,ENE,61,0.0,0.0,88,0.00,,,0.00,0,WeatherCatV1.13B119,2013-02-06 00:27:00,
2013-02-05 19:32:00,30.6,27.8,29.65,ENE,61,0.0,0.0,89,0.00,,,0.00,0,WeatherCatV1.13B119,2013-02-06 00:32:00,
2013-02-05 19:37:00,30.5,27.7,29.65,ENE,61,0.0,0.0,89,0.00,,,0.00,0,WeatherCatV1.13B119,2013-02-06 00:37:00,
2013-02-05 19:42:00,30.5,27.7,29.65,ENE,61,1.0,1.0,89,0.00,,,0.00,0,WeatherCatV1.13B119,2013-02-06 00:42:00,
2013-02-05 19:47:00,30.3,27.7,29.65,ENE,61,0.0,0.0,90,0.00,,,0.00,0,WeatherCatV1.13B119,2013-02-06 00:47:00,
2013-02-05 19:52:00,30.3,27.7,29.65,ENE,61,0.0,0.0,90,0.00,,,0.00,0,WeatherCatV1.13B119,2013-02-06 00:52:00,
2013-02-05 19:57:00,30.2,27.6,29.65,ENE,61,0.0,0.0,90,0.00,,,0.00,0,WeatherCatV1.13B119,2013-02-06 00:57:00,
2013-02-05 20:02:00,30.1,27.8,29.65,ENE,61,0.0,0.0,91,0.00,,,0.00,0,WeatherCatV1.13B119,2013-02-06 01:02:00,
2013-02-05 20:07:00,30.1,27.8,29.65,ENE,61,0.0,0.0,91,0.00,,,0.00,0,WeatherCatV1.13B119,2013-02-06 01:07:00,
2013-02-05 20:12:00,30.1,27.8,29.65,ENE,61,0.0,0.0,91,0.00,,,0.00,0,WeatherCatV1.13B119,2013-02-06 01:12:00,
2013-02-05 20:17:00,30.1,27.8,29.65,ENE,61,0.0,0.0,91,0.00,,,0.00,0,WeatherCatV1.13B119,2013-02-06 01:17:00,
2013-02-05 20:22:00,30.0,27.7,29.65,ENE,61,0.0,0.0,91,0.00,,,0.00,0,WeatherCatV1.13B119,2013-02-06 01:22:00,
2013-02-05 20:27:00,30.0,27.7,29.65,ENE,61,0.0,0.0,91,0.00,,,0.00,0,WeatherCatV1.13B119,2013-02-06 01:27:00,
2013-02-05 20:32:00,30.0,27.7,29.65,ENE,61,0.0,0.0,91,0.00,,,0.00,0,WeatherCatV1.13B119,2013-02-06 01:32:00,
2013-02-05 20:37:00,30.0,27.7,29.65,ENE,61,0.0,0.0,91,0.00,,,0.00,0,WeatherCatV1.13B119,2013-02-06 01:37:00,
2013-02-05 20:42:00,29.9,27.9,29.65,ENE,61,0.0,0.0,92,0.00,,,0.00,0,WeatherCatV1.13B119,2013-02-06 01:42:00,
2013-02-05 20:47:00,29.9,27.9,29.65,ENE,61,0.0,0.0,92,0.00,,,0.00,0,WeatherCatV1.13B119,2013-02-06 01:47:00,
2013-02-05 20:52:00,29.9,27.6,29.66,ENE,61,0.0,1.0,91,0.00,,,0.00,0,WeatherCatV1.13B119,2013-02-06 01:52:00,
2013-02-05 20:57:00,29.9,27.9,29.65,ENE,61,0.0,0.0,92,0.00,,,0.00,0,WeatherCatV1.13B119,2013-02-06 01:57:00,
2013-02-05 21:02:00,29.9,27.9,29.66,ENE,61,0.0,0.0,92,0.00,,,0.00,0,WeatherCatV1.13B119,2013-02-06 02:02:00,
2013-02-05 21:07:00,29.9,27.9,29.66,ENE,61,0.0,0.0,92,0.00,,,0.00,0,WeatherCatV1.13B119,2013-02-06 02:07:00,
2013-02-05 21:12:00,29.9,27.9,29.66,ENE,61,0.0,0.0,92,0.00,,,0.00,0,WeatherCatV1.13B119,2013-02-06 02:12:00,
2013-02-05 21:17:00,29.9,27.9,29.65,ENE,61,0.0,0.0,92,0.00,,,0.00,0,WeatherCatV1.13B119,2013-02-06 02:17:00,
2013-02-05 21:22:00,29.9,27.9,29.65,ENE,61,0.0,0.0,92,0.00,,,0.00,0,WeatherCatV1.13B119,2013-02-06 02:22:00,
2013-02-05 21:27:00,29.9,27.9,29.65,ENE,61,0.0,0.0,92,0.00,,,0.00,0,WeatherCatV1.13B119,2013-02-06 02:27:00,
2013-02-05 21:32:00,29.8,27.8,29.65,ENE,61,0.0,0.0,92,0.00,,,0.00,0,WeatherCatV1.13B119,2013-02-06 02:32:00,
2013-02-05 21:37:00,29.8,27.8,29.66,ENE,61,0.0,0.0,92,0.00,,,0.00,0,WeatherCatV1.13B119,2013-02-06 02:37:00,
2013-02-05 21:42:00,29.8,28.0,29.66,ENE,61,0.0,1.0,93,0.00,,,0.00,0,WeatherCatV1.13B119,2013-02-06 02:42:00,
2013-02-05 21:47:00,29.8,28.0,29.66,ENE,61,0.0,0.0,93,0.00,,,0.00,0,WeatherCatV1.13B119,2013-02-06 02:47:00,
2013-02-05 21:52:00,29.8,28.0,29.66,ENE,61,0.0,0.0,93,0.00,,,0.00,0,WeatherCatV1.13B119,2013-02-06 02:52:00,
2013-02-05 21:57:00,29.8,28.0,29.66,ENE,61,0.0,0.0,93,0.00,,,0.00,0,WeatherCatV1.13B119,2013-02-06 02:57:00,
2013-02-05 22:02:00,29.8,28.0,29.66,ENE,61,0.0,0.0,93,0.00,,,0.00,0,WeatherCatV1.13B119,2013-02-06 03:02:00,
2013-02-05 22:07:00,29.8,28.0,29.66,ENE,61,0.0,0.0,93,0.00,,,0.00,0,WeatherCatV1.13B119,2013-02-06 03:07:00,
2013-02-05 22:12:00,29.8,28.0,29.66,ENE,61,0.0,0.0,93,0.00,,,0.00,0,WeatherCatV1.13B119,2013-02-06 03:12:00,
2013-02-05 22:17:00,29.8,28.0,29.66,ENE,61,0.0,0.0,93,0.00,,,0.00,0,WeatherCatV1.13B119,2013-02-06 03:17:00,
2013-02-05 22:22:00,29.8,28.0,29.66,ENE,61,0.0,0.0,93,0.00,,,0.00,0,WeatherCatV1.13B119,2013-02-06 03:22:00,
2013-02-05 22:27:00,29.8,28.0,29.66,ENE,61,0.0,0.0,93,0.00,,,0.00,0,WeatherCatV1.13B119,2013-02-06 03:27:00,
2013-02-05 22:32:00,29.8,28.0,29.66,ENE,61,0.0,0.0,93,0.00,,,0.00,0,WeatherCatV1.13B119,2013-02-06 03:32:00,
2013-02-05 22:37:00,29.8,28.0,29.66,ENE,61,0.0,0.0,93,0.00,,,0.00,0,WeatherCatV1.13B119,2013-02-06 03:37:00,
2013-02-05 22:42:00,29.8,28.0,29.66,ENE,61,0.0,0.0,93,0.00,,,0.00,0,WeatherCatV1.13B119,2013-02-06 03:42:00,
2013-02-05 22:47:00,29.8,28.0,29.66,ENE,61,0.0,0.0,93,0.00,,,0.00,0,WeatherCatV1.13B119,2013-02-06 03:47:00,
2013-02-05 22:52:00,29.8,28.0,29.66,ENE,61,0.0,1.0,93,0.00,,,0.00,0,WeatherCatV1.13B119,2013-02-06 03:52:00,
2013-02-05 22:57:00,29.8,28.0,29.66,ENE,61,0.0,0.0,93,0.00,,,0.00,0,WeatherCatV1.13B119,2013-02-06 03:57:00,
2013-02-05 23:02:00,29.8,28.0,29.66,ENE,61,0.0,0.0,93,0.00,,,0.00,0,WeatherCatV1.13B119,2013-02-06 04:02:00,
2013-02-05 23:07:00,29.9,28.1,29.66,ENE,61,0.0,0.0,93,0.00,,,0.00,0,WeatherCatV1.13B119,2013-02-06 04:07:00,
2013-02-05 23:12:00,29.9,28.1,29.66,ENE,61,0.0,0.0,93,0.00,,,0.00,0,WeatherCatV1.13B119,2013-02-06 04:12:00,
2013-02-05 23:17:00,29.9,28.1,29.66,ENE,61,0.0,0.0,93,0.00,,,0.00,0,WeatherCatV1.13B119,2013-02-06 04:17:00,
2013-02-05 23:22:00,29.9,28.1,29.66,ENE,61,0.0,0.0,93,0.00,,,0.00,0,WeatherCatV1.13B119,2013-02-06 04:22:00,
2013-02-05 23:27:00,29.9,28.1,29.66,ENE,61,0.0,0.0,93,0.00,,,0.00,0,WeatherCatV1.13B119,2013-02-06 04:27:00,
2013-02-05 23:32:00,29.9,28.1,29.67,ENE,61,0.0,0.0,93,0.00,,,0.00,0,WeatherCatV1.13B119,2013-02-06 04:32:00,
2013-02-05 23:37:00,29.9,28.1,29.67,ENE,61,0.0,0.0,93,0.00,,,0.00,0,WeatherCatV1.13B119,2013-02-06 04:37:00,
2013-02-05 23:42:00,29.9,28.1,29.67,ENE,61,0.0,0.0,93,0.00,,,0.00,0,WeatherCatV1.13B119,2013-02-06 04:42:00,
2013-02-05 23:47:00,29.9,28.1,29.67,ENE,61,0.0,0.0,93,0.00,,,0.00,0,WeatherCatV1.13B119,2013-02-06 04:47:00,
2013-02-05 23:52:00,29.9,28.1,29.67,ENE,61,0.0,0.0,93,0.00,,,0.00,0,WeatherCatV1.13B119,2013-02-06 04:52:00,
2013-02-05 23:57:00,29.9,28.1,29.66,ENE,61,0.0,0.0,93,0.00,,,0.00,0,WeatherCatV1.13B119,2013-02-06 04:57:00,